Marlborough, NH

9:11 PM EST on March 01, 2015 (GMT -0500)
APRSWXNET Marlborough NH US | Change Station
CLOSE
Current Station
Personal Weather Station
Location: Marlborough, NH
Elevation: 754 ft
Nearby Weather Stations

Elev 754 ft 42.91 °N, 72.22 °W | Updated 37 minutes ago

Snow
Snow
22 °F
Feels Like 22 °F
N
0
Wind Variable Wind from ENE
Gusts 1.0 mph

Today
High -- | Low -- °F
--% Chance of Precip.
Yesterday
High -- | Low -- °F
Precip. -- in
6:25 AM 5:37 PM
Waxing Gibbous, 88% visible
Pressure 30.19 in
Visibility 3.0 miles
Clouds Few 1800 ft
Scattered Clouds 3100 ft
Windchill 22 °F
Dew Point 19 °F
Humidity 89%
Rainfall 0.00 in
Snow Depth Not available.
UV 0 out of 12
Pollen .30 out of 12
Air Quality Not available.
Flu Activity Not available.
METAR KEEN 020155Z AUTO 00000KT 3SM FEW018 SCT031 M05/M07 A3019 RMK AO1

More Conditions Fewer Conditions

Pressure 30.19 in
Visibility 3.0 miles
Clouds Few 1800 ft
Scattered Clouds 3100 ft
Windchill 22 °F
Dew Point 19 °F
Humidity 89%
Rainfall 0.00 in
Snow Depth Not available.
UV 0 out of 12
Pollen .30 out of 12
Air Quality Not available.
Flu Activity Not available.
METAR KEEN 020155Z AUTO 00000KT 3SM FEW018 SCT031 M05/M07 A3019 RMK AO1

More Conditions Fewer Conditions

10-Day Weather Forecast

Almanac

Astronomy

Mar. 01, 2015 Rise Set
Actual Time
Civil Twilight
Nautical Twilight
Astronomical Twilight
Moon
Length of Visible Light
Length of Day
Tomorrow will be .
, % of the Moon is Illuminated

Today's Extremes

State Highs State Lows

Community

WunderPhotos

Upload Photos

1,801,683 photos uploaded!

WunderBlogs® & News

Nearby

Air Quality

  Air Quality AQ Index Pollutant
Not available.

Snow Depth

Station Depth Elevation

Earthquake Activity

City Distance Mag. Time & Date
Minimum magnitude displayed is 2.5.

Coastal Water Temperatures

Place Temperature

Nearby Weather Stations